Regional Weather Roundup
Issued by NWS Upton, NY

Current Version | Previous Version | Graphics & Text | Print | Product List | Glossary Off
Versions: 1 2 3 4 5 6 7 8 9 10 11 12 13 14 15 16 17 18 19 20 21 22 23 24 25 26 27 28 29 30 31 32 33 34 35 36 37 38 39 40 41 42 43 44 45 46 47 48 49 50

000
ASUS41 KOKX 050704
RWROKX

REGIONAL WEATHER ROUNDUP
NATIONAL WEATHER SERVICE NEW YORK NY
200 AM EST FRI FEB 05 2016

NOTE: "FAIR" INDICATES FEW OR NO CLOUDS BELOW 12,000 FEET WITH NO
SIGNIFICANT WEATHER AND/OR OBSTRUCTIONS TO VISIBILITY.

NYZ071-072-176-178-NJZ106-104-050800-
NEW YORK CITY METRO AREA


CITY           SKY/WX    TMP DP  RH WIND       PRES   REMARKS
CENTRAL PARK   LGT RAIN  40  28  62 NE14G24   30.06F WCI  32
LAGUARDIA APRT FLURRIES  41  29  62 NE14      30.04F
KENNEDY INTL   LGT RAIN  41  30  65 N15G24    30.04F
NEWARK/LIBERTY LGT RAIN  40  31  70 N20G26    30.05F WCI  30
BRNX BOT. GARD   N/A     39  30  70 N9        30.04F WCI  33
TETERBORO      SLEET SH  41  26  55 N10G20    30.04F
$$

NYZ177-179-078>081-050800-
LONG ISLAND NEW YORK

CITY           SKY/WX    TMP DP  RH WIND       PRES   REMARKS
FARMINGDALE    LGT RAIN  42  30  62 N10       30.04F
ISLIP          LGT RAIN  40  34  79 N5        30.03F
SHIRLEY        RAIN      39  35  86 N5        30.05S
RIVERHEAD        N/A     39  34  81 N3        30.04F
WESTHAMPTON    LGT RAIN  39  35  86 N7        30.07R WCI  34
EAST HAMPTON   RAIN      38  36  91 N6        30.02F WCI  34
MONTAUK POINT    N/A     40  36  86 N12G17    30.02F WCI  33
$$

NYZ052-065-067-050800-
HUDSON VALLEY

CITY           SKY/WX    TMP DP  RH WIND       PRES   REMARKS
WHITE PLAINS   FLURRIES  39  28  64 N10       30.03F WCI  32
NEWBURGH       NOT AVBL
MONTGOMERY     CLOUDY    38  28  67 NE7       30.05F WCI  33
POUGHKEEPSIE   CLOUDY    40  26  57 N14       30.06F WCI  32
ALBANY         CLOUDY    35  24  64 W14       30.13S WCI  26
$$

NJZ001-105-106-008-010-013-015-019>022-104-050800-
NEW JERSEY

CITY           SKY/WX    TMP DP  RH WIND       PRES   REMARKS
NEWARK/LIBERTY LGT RAIN  40  31  70 N20G26    30.05F WCI  30
TETERBORO      SLEET SH  41  26  55 N10G20    30.04F
CALDWELL       LGT RAIN  40  28  62 VRB7G16   30.05F
MORRISTOWN     LGT RAIN  39  28  65 NE8       30.06F WCI  34
SOMERVILLE     LGT RAIN  40  30  67 N10G18    30.05S WCI  33
SUSSEX         CLOUDY    39  25  57 N7        30.07F WCI  34
ANDOVER          N/A     38  25  59 N9        30.04F WCI  31
TRENTON        LGT RAIN  38  32  79 N10       30.06S WCI  31
MILLVILLE      RAIN      40  37  89 N13G22    30.02S FOG     WCI  32
ATLANTIC CITY  LGT RAIN  41  39  93 NE15G24   29.98F
WRIGHTSTOWN    LGT RAIN  39  39  99 N9        30.00S WCI  33
TOMS RIVER     CLOUDY    39  36  87 N10       30.02F WCI  32
BELMAR         CLOUDY    39  30  70 N10       30.01F WCI  32
$$

PAZ047>061-062-071-050800-
EASTERN PENNSYLVANIA

CITY           SKY/WX    TMP DP  RH WIND       PRES   REMARKS
PHILADELPHIA   LGT RAIN  39  33  79 N9        30.07R FOG     WCI  33
ALLENTOWN      CLOUDY    40  26  57 N7        30.07R
SCRANTON       CLOUDY    36  26  67 N7        30.10S WCI  30
$$

CTZ002-004>006-009-010-012-RIZ004-006-007-MAZ004-011-015-050800-
SOUTHERN NEW ENGLAND
 IN CT

CITY           SKY/WX    TMP DP  RH WIND       PRES   REMARKS
BRADLEY INTL   CLOUDY    40  24  53 NW8       30.08R WCI  34
HARTFORD       CLOUDY    42  25  50 N10       30.08R
DANBURY        CLOUDY    38  24  57 N13       30.07F WCI  30
WTRBRY/OXFORD  CLOUDY    36  21  55 N14G21    30.05R WCI  27
BRIDGEPORT     LGT RAIN  42  28  57 N10G23    30.04F
MERIDEN        LGT RAIN  40  27  59 N14G23    30.06R WCI  32
NEW HAVEN      CLOUDY    41  29  62 N17       30.03F
CHESTER        LGT RAIN  37  32  81 N9        30.02F WCI  31
GROTON         LGT RAIN  39  37  92 N9        30.02F WCI  33
WILLIMANTIC    LGT RAIN  39  32  76 N3        30.06R

 IN RI

CITY           SKY/WX    TMP DP  RH WIND       PRES   REMARKS
PROVIDENCE     LGT RAIN  41  35  79 N8        30.04R
BLOCK ISLAND   CLOUDY    39  37  93 N8        30.02R WCI  34
WESTERLY       LGT RAIN  39  36  89 N8        30.04R WCI  33

 IN MA

CITY           SKY/WX    TMP DP  RH WIND       PRES   REMARKS
BOSTON         LGT RAIN  41  33  73 NW8       30.05F
WORCESTER      CLOUDY    37  21  52 N12       30.03S WCI  29
WESTFIELD      CLOUDY    40  23  50 NW8       30.08R WCI  34
PROVINCETOWN   LGT RAIN  42  39  89 N8        30.02F
NANTUCKET      LGT RAIN  43  40  89 N16       29.97F
$$

ANZ330-335-338-340-345-350-353-355-050800-
COASTAL MARINE OBSERVATIONS


STATION/POSITION TIME  SKY/WX   TEMP    WIND        PRES    VSBY  WAVE
                                AIR SEA DIR/SP/G                  HT/PER
                 (UTC)          (F)     (DEG/KT/KT) (MB)    (MI)  (FT/S)
NY HARB ENTRANCE 0550            42 44   10/ 17/ 21 1016.0          5/ 8
4S FIRE IS       NOT AVBL
20S FIRE ISLAND  0550            40 43   20/ 19/ 25 1015.9          5/ 9
GREAT SOUTH BAY  NOT AVBL
23SW MTP         0550            41 44   10/ 19/ 23 1015.3          6/ 9
HUDSON CANYON    0550            46 51              1014.2          6/ 8
KINGS POINT      0600            41 40   50/ 14/ 18 1016.9
EXECUTION ROCKS  NOT AVBL
CENTRAL LI SOUND 0600            40      10/ 12/ 16   N/A           1/ 3
EASTERN LI SOUND 0600            42 43   10/ 12/ 14   N/A
ROBBINS REEF     0600            42      10/ 15/ 17 1017.1
$$


>>>>>>>>>>>>>>>>>>>>>>>>>>>> KEY <<<<<<<<<<<<<<<<<<<<<<<<<<<
>                                                          <
>     SKY/WX - SKY CONDITION/PRESENT WEATHER               <
>     TMP    - TEMPERATURE IN FAHRENHEIT                   <
>     DP     - DEWPOINT IN FAHRENHEIT                      <
>     RH     - RELATIVE HUMIDITY IN PERCENT                <
>     WIND   - DIRECTION AND SPEED IN MPH                  <
>     PRES   - MEAN SEA LEVEL PRESSURE IN INCHES OF HG     <
>     WCI    - WIND CHILL INDEX                            <
>     VSB    - VISIBILITY IN MILES                         <
>     HX     - HEAT INDEX                                  <
>     TC     - TEMPERATURE IN CELSIUS                      <
>     VRB    - VARIABLE WIND DIRECTION                     <
>                                                          <
>>>>>>>>>>>>>>>>>>>>>>>>>>>> KEY <<<<<<<<<<<<<<<<<<<<<<<<<<<





USA.gov is the U.S. government's official web portal to all federal, state and local government web resources and services.